Location: Brantley
(31.5822°N, 86.2569°W)
Time: 22:09:23
(UTC+00:00)

A-11 Canister half - Pass Details

Date: 17 February 2026
Orbit: 1525 x 1683 km, 47.3° (Epoch: 10 March)

Event Time Altitude Azimuth Distance (km) Brightness Sun altitude
Rises 01:46:46 0° 296° (WNW) 4,680 12.5 -29.1°
Reaches altitude 10° 01:50:22 10° 307° (NW) 3,692 11.7 -29.9°
Maximum altitude 01:58:19 31° 6° (N) 2,451 10.0 -31.6°
Enters shadow 02:00:07 29° 26° (NNE) 2,535 9.9 -31.9°
